| time (UTC) | temp F | wind direction | speed knots | gust knots | rain 1hr in | rain 24hr in | rain mn in | humidity % | barometer mb |
| 20260507060538 | 56 | 283 | 0.9 | 3.5 | 0.00 | 0.00 | 0.00 | 73 | 1013.0 |
| 20260507060059 | 56 | 317 | 0.9 | 3.5 | 0.00 | 0.00 | 0.00 | 75 | 1013.0 |
| 20260507055540 | 55 | 279 | 0.9 | 3.5 | 0.00 | 0.00 | 0.00 | 76 | 1012.9 |
| 20260507055039 | 55 | 325 | 0.9 | 3.5 | 0.00 | 0.00 | 0.00 | 77 | 1012.9 |
| 20260507054554 | 54 | 315 | 0.9 | 2.6 | 0.00 | 0.00 | 0.00 | 77 | 1012.9 |
| 20260507054042 | 54 | 274 | 0.0 | 2.6 | 0.00 | 0.00 | 0.00 | 77 | 1012.9 |
| 20260507053542 | 54 | 0 | 0.0 | 2.6 | 0.00 | 0.00 | 0.00 | 78 | 1012.9 |
| 20260507053052 | 54 | 300 | 0.0 | 2.6 | 0.00 | 0.00 | 0.00 | 78 | 1012.8 |
| 20260507052544 | 54 | 311 | 0.0 | 3.5 | 0.00 | 0.00 | 0.00 | 80 | 1012.8 |
| 20260507052040 | 53 | 322 | 0.0 | 4.3 | 0.00 | 0.00 | 0.00 | 80 | 1012.7 |
| 20260507051553 | 53 | 324 | 0.0 | 4.3 | 0.00 | 0.00 | 0.00 | 80 | 1012.5 |
| 20260507051041 | 53 | 0 | 0.9 | 2.6 | 0.00 | 0.00 | 0.00 | 80 | 1012.5 |
| 20260507050540 | 53 | 0 | 0.0 | 1.7 | 0.00 | 0.00 | 0.00 | 81 | 1012.5 |
| 20260507050053 | 53 | 286 | 0.0 | 1.7 | 0.00 | 0.00 | 0.00 | 81 | 1012.4 |
| 20260507045542 | 52 | 0 | 0.0 | 1.7 | 0.00 | 0.00 | 0.00 | 81 | 1012.4 |
| 20260507045039 | 52 | 0 | 0.0 | 1.7 | 0.00 | 0.00 | 0.00 | 81 | 1012.3 |
| 20260507044605 | 52 | 273 | 0.0 | 1.7 | 0.00 | 0.00 | 0.00 | 81 | 1012.2 |
| 20260507044040 | 52 | 0 | 0.0 | 1.7 | 0.00 | 0.00 | 0.00 | 81 | 1012.2 |
| 20260507043540 | 52 | 313 | 0.0 | 1.7 | 0.00 | 0.00 | 0.00 | 81 | 1012.1 |
| 20260507043102 | 52 | 309 | 0.0 | 1.7 | 0.00 | 0.00 | 0.00 | 81 | 1012.1 |
| 20260507042541 | 52 | 0 | 0.0 | 1.7 | 0.00 | 0.00 | 0.00 | 81 | 1012.1 |
| 20260507042044 | 52 | 0 | 0.0 | 1.7 | 0.00 | 0.00 | 0.00 | 81 | 1012.0 |
| 20260507041557 | 52 | 0 | 0.0 | 2.6 | 0.00 | 0.00 | 0.00 | 81 | 1011.9 |
| 20260507041041 | 52 | 0 | 0.0 | 2.6 | 0.00 | 0.00 | 0.00 | 81 | 1011.8 |
| 20260507040540 | 52 | 304 | 0.0 | 2.6 | 0.00 | 0.00 | 0.00 | 80 | 1011.8 |
| 20260507040054 | 52 | 0 | 0.0 | 0.9 | 0.00 | 0.00 | 0.00 | 80 | 1011.8 |
| 20260507035539 | 52 | 0 | 0.0 | 0.9 | 0.00 | 0.00 | 0.00 | 80 | 1011.8 |
| 20260507035039 | 52 | 0 | 0.0 | 0.9 | 0.00 | 0.00 | 0.00 | 79 | 1011.7 |
| 20260507034554 | 52 | 0 | 0.0 | 1.7 | 0.00 | 0.00 | 0.00 | 79 | 1011.6 |
| 20260507034040 | 52 | 0 | 0.0 | 1.7 | 0.00 | 0.00 | 0.00 | 79 | 1011.5 |
| 20260507033540 | 52 | 0 | 0.0 | 1.7 | 0.00 | 0.00 | 0.00 | 79 | 1011.6 |
| 20260507033052 | 53 | 0 | 0.0 | 1.7 | 0.00 | 0.00 | 0.00 | 79 | 1011.5 |
| 20260507032540 | 53 | 0 | 0.0 | 1.7 | 0.00 | 0.00 | 0.00 | 79 | 1011.5 |
| 20260507032039 | 53 | 0 | 0.0 | 1.7 | 0.00 | 0.00 | 0.00 | 79 | 1011.5 |
| 20260507031554 | 53 | 0 | 0.0 | 2.6 | 0.00 | 0.00 | 0.00 | 79 | 1011.5 |
| 20260507031039 | 53 | 0 | 0.0 | 2.6 | 0.00 | 0.00 | 0.00 | 79 | 1011.4 |
| 20260507030539 | 53 | 269 | 0.0 | 2.6 | 0.00 | 0.00 | 0.00 | 79 | 1011.3 |
| 20260507030049 | 53 | 302 | 0.0 | 2.6 | 0.00 | 0.00 | 0.00 | 79 | 1011.3 |
| 20260507025540 | 53 | 211 | 0.0 | 3.5 | 0.00 | 0.00 | 0.00 | 79 | 1011.2 |
| 20260507025040 | 53 | 0 | 0.0 | 3.5 | 0.00 | 0.00 | 0.00 | 80 | 1011.2 |
| 20260507024553 | 53 | 318 | 0.0 | 2.6 | 0.00 | 0.00 | 0.00 | 80 | 1011.2 |
| 20260507024040 | 53 | 242 | 0.0 | 2.6 | 0.00 | 0.00 | 0.00 | 80 | 1011.2 |
| 20260507023540 | 53 | 0 | 0.0 | 5.2 | 0.00 | 0.00 | 0.00 | 80 | 1011.2 |
| 20260507023103 | 53 | 215 | 0.0 | 5.2 | 0.00 | 0.00 | 0.00 | 80 | 1011.2 |
| 20260507022540 | 53 | 0 | 0.0 | 5.2 | 0.00 | 0.00 | 0.00 | 80 | 1011.1 |
| 20260507022040 | 53 | 0 | 1.7 | 5.2 | 0.00 | 0.00 | 0.00 | 80 | 1011.1 |
| 20260507021550 | 53 | 0 | 0.0 | 5.2 | 0.00 | 0.00 | 0.00 | 80 | 1011.1 |
| 20260507021040 | 53 | 0 | 0.0 | 5.2 | 0.00 | 0.00 | 0.00 | 80 | 1011.2 |
| 20260507020540 | 53 | 0 | 0.0 | 3.5 | 0.00 | 0.00 | 0.00 | 80 | 1011.2 |
| 20260507020059 | 53 | 0 | 0.0 | 1.7 | 0.00 | 0.00 | 0.00 | 80 | 1011.1 |
| 20260507015539 | 53 | 263 | 0.0 | 4.3 | 0.00 | 0.00 | 0.00 | 80 | 1011.1 |
| 20260507015040 | 53 | 0 | 0.0 | 4.3 | 0.00 | 0.00 | 0.00 | 80 | 1011.1 |
| 20260507014546 | 54 | 0 | 0.0 | 4.3 | 0.00 | 0.00 | 0.00 | 80 | 1011.1 |
| 20260507014040 | 54 | 0 | 0.0 | 2.6 | 0.00 | 0.00 | 0.00 | 80 | 1011.0 |
| 20260507013541 | 54 | 0 | 0.0 | 2.6 | 0.00 | 0.00 | 0.00 | 79 | 1011.0 |
| 20260507013047 | 54 | 312 | 0.0 | 2.6 | 0.00 | 0.00 | 0.00 | 80 | 1011.0 |
| 20260507012546 | 54 | 0 | 0.0 | 0.0 | 0.00 | 0.00 | 0.00 | 80 | 1011.0 |
| 20260507012040 | 54 | 0 | 0.0 | 0.9 | 0.00 | 0.00 | 0.00 | 80 | 1011.0 |
| 20260507011548 | 54 | 0 | 0.0 | 1.7 | 0.00 | 0.00 | 0.00 | 80 | 1011.0 |
| 20260507011039 | 54 | 0 | 0.0 | 5.2 | 0.00 | 0.00 | 0.00 | 80 | 1011.0 |
| 20260507010540 | 54 | 0 | 0.0 | 5.2 | 0.00 | 0.00 | 0.00 | 80 | 1011.0 |
| 20260507010051 | 54 | 144 | 1.7 | 5.2 | 0.00 | 0.00 | 0.00 | 80 | 1010.9 |
| 20260507005540 | 54 | 0 | 0.9 | 3.5 | 0.00 | 0.00 | 0.00 | 80 | 1010.9 |
| 20260507005041 | 54 | 257 | 0.0 | 3.5 | 0.00 | 0.00 | 0.00 | 80 | 1010.9 |
| 20260507004551 | 54 | 0 | 0.0 | 5.2 | 0.00 | 0.00 | 0.00 | 80 | 1010.9 |
| 20260507004039 | 54 | 251 | 0.9 | 5.2 | 0.00 | 0.00 | 0.00 | 80 | 1010.8 |
| 20260507003541 | 54 | 254 | 0.9 | 4.3 | 0.00 | 0.00 | 0.00 | 80 | 1010.7 |
| 20260507003106 | 54 | 213 | 0.9 | 4.3 | 0.00 | 0.00 | 0.00 | 80 | 1010.7 |
| 20260507002545 | 54 | 233 | 0.9 | 4.3 | 0.00 | 0.00 | 0.00 | 79 | 1010.7 |
| 20260507002042 | 54 | 307 | 0.9 | 4.3 | 0.00 | 0.00 | 0.00 | 79 | 1010.7 |
| 20260507001609 | 55 | 0 | 0.0 | 4.3 | 0.00 | 0.00 | 0.00 | 79 | 1010.6 |
| 20260507001041 | 55 | 293 | 0.9 | 6.1 | 0.00 | 0.00 | 0.00 | 79 | 1010.7 |
| 20260507000543 | 55 | 291 | 0.9 | 6.1 | 0.00 | 0.00 | 0.00 | 80 | 1010.8 |
| 20260507000047 | 55 | 232 | 0.9 | 7.0 | 0.00 | 0.00 | 0.00 | 80 | 1010.8 |
| 20260506235540 | 55 | 0 | 1.7 | 7.0 | 0.00 | 0.00 | 0.00 | 79 | 1010.8 |
| 20260506235039 | 55 | 0 | 0.0 | 3.5 | 0.00 | 0.00 | 0.00 | 79 | 1010.8 |
| 20260506234551 | 55 | 286 | 0.9 | 5.2 | 0.00 | 0.00 | 0.00 | 79 | 1010.8 |
| 20260506234040 | 55 | 331 | 1.7 | 5.2 | 0.00 | 0.00 | 0.00 | 79 | 1010.8 |
| 20260506233540 | 55 | 0 | 0.0 | 2.6 | 0.00 | 0.00 | 0.00 | 79 | 1010.7 |
| 20260506233052 | 55 | 240 | 0.0 | 5.2 | 0.00 | 0.00 | 0.00 | 79 | 1010.7 |
| 20260506232539 | 55 | 202 | 0.0 | 5.2 | 0.00 | 0.00 | 0.00 | 79 | 1010.7 |
| 20260506232040 | 55 | 157 | 0.9 | 5.2 | 0.00 | 0.00 | 0.00 | 79 | 1010.7 |
| 20260506231554 | 55 | 0 | 0.9 | 5.2 | 0.00 | 0.00 | 0.00 | 79 | 1010.6 |
| 20260506231040 | 55 | 280 | 0.9 | 4.3 | 0.00 | 0.00 | 0.00 | 79 | 1010.7 |
| 20260506230540 | 55 | 269 | 0.0 | 8.7 | 0.00 | 0.00 | 0.00 | 79 | 1010.7 |
| 20260506230107 | 55 | 219 | 0.0 | 8.7 | 0.00 | 0.00 | 0.00 | 79 | 1010.6 |
| 20260506225557 | 55 | 264 | 1.7 | 11.3 | 0.00 | 0.00 | 0.00 | 79 | 1010.6 |
| 20260506225040 | 55 | 221 | 1.7 | 11.3 | 0.00 | 0.00 | 0.00 | 78 | 1010.3 |
| 20260506224548 | 56 | 288 | 2.6 | 8.7 | 0.00 | 0.00 | 0.00 | 78 | 1010.2 |
| 20260506224039 | 56 | 207 | 2.6 | 7.8 | 0.00 | 0.00 | 0.00 | 78 | 1010.1 |
| 20260506223541 | 56 | 188 | 1.7 | 7.8 | 0.00 | 0.00 | 0.00 | 79 | 1009.8 |
| 20260506223049 | 56 | 277 | 1.7 | 7.8 | 0.00 | 0.00 | 0.00 | 79 | 1009.8 |
| 20260506222540 | 56 | 198 | 2.6 | 8.7 | 0.00 | 0.00 | 0.00 | 79 | 1009.9 |
| 20260506222040 | 56 | 210 | 1.7 | 8.7 | 0.00 | 0.00 | 0.00 | 79 | 1009.7 |
| 20260506221603 | 56 | 235 | 0.9 | 7.8 | 0.00 | 0.00 | 0.00 | 80 | 1009.7 |
| 20260506221039 | 56 | 203 | 0.9 | 7.8 | 0.00 | 0.00 | 0.00 | 81 | 1009.6 |
| 20260506220539 | 56 | 201 | 1.7 | 7.0 | 0.00 | 0.00 | 0.00 | 81 | 1009.5 |
| 20260506220055 | 57 | 0 | 0.0 | 6.1 | 0.00 | 0.00 | 0.00 | 81 | 1009.4 |
| 20260506215542 | 57 | 351 | 0.9 | 7.0 | 0.00 | 0.00 | 0.00 | 80 | 1009.3 |
| 20260506215040 | 57 | 279 | 0.9 | 7.8 | 0.00 | 0.00 | 0.00 | 80 | 1009.3 |
| 20260506214555 | 57 | 250 | 1.7 | 7.8 | 0.00 | 0.00 | 0.00 | 81 | 1009.2 |
| 20260506214040 | 57 | 145 | 0.9 | 6.1 | 0.00 | 0.00 | 0.00 | 81 | 1009.2 |
| 20260506213540 | 57 | 0 | 0.9 | 7.8 | 0.00 | 0.00 | 0.00 | 81 | 1009.2 |
| 20260506213050 | 57 | 259 | 1.7 | 7.8 | 0.00 | 0.00 | 0.00 | 81 | 1009.2 |
| 20260506212540 | 57 | 269 | 0.9 | 7.0 | 0.00 | 0.00 | 0.00 | 81 | 1009.2 |
| 20260506212040 | 57 | 202 | 0.9 | 7.8 | 0.00 | 0.00 | 0.00 | 82 | 1009.1 |
| 20260506211548 | 57 | 271 | 2.6 | 7.8 | 0.00 | 0.00 | 0.00 | 82 | 1009.0 |
| 20260506211039 | 58 | 188 | 0.9 | 7.0 | 0.00 | 0.00 | 0.00 | 83 | 1009.0 |
| 20260506210540 | 58 | 0 | 1.7 | 7.8 | 0.00 | 0.00 | 0.00 | 83 | 1008.8 |
| 20260506210058 | 58 | 271 | 2.6 | 10.4 | 0.00 | 0.00 | 0.00 | 84 | 1008.8 |
| 20260506205541 | 58 | 299 | 1.7 | 10.4 | 0.00 | 0.00 | 0.00 | 84 | 1008.7 |
| 20260506205039 | 58 | 295 | 2.6 | 10.4 | 0.00 | 0.00 | 0.00 | 84 | 1008.6 |
| 20260506204547 | 58 | 280 | 0.9 | 7.8 | 0.00 | 0.00 | 0.00 | 85 | 1008.3 |
| 20260506204038 | 58 | 261 | 1.7 | 7.8 | 0.00 | 0.00 | 0.00 | 85 | 1008.3 |
| 20260506203540 | 58 | 0 | 0.9 | 7.8 | 0.00 | 0.00 | 0.00 | 86 | 1008.3 |
| 20260506203102 | 58 | 279 | 0.9 | 7.8 | 0.00 | 0.00 | 0.00 | 86 | 1008.2 |
| 20260506202541 | 58 | 277 | 1.7 | 7.8 | 0.00 | 0.00 | 0.00 | 86 | 1008.0 |
| 20260506202040 | 58 | 194 | 2.6 | 7.0 | 0.00 | 0.00 | 0.00 | 86 | 1008.0 |
| 20260506201549 | 58 | 160 | 0.9 | 7.8 | 0.00 | 0.00 | 0.00 | 85 | 1007.9 |
| 20260506201040 | 58 | 244 | 1.7 | 7.8 | 0.00 | 0.00 | 0.00 | 85 | 1007.7 |
| 20260506200539 | 59 | 0 | 1.7 | 7.8 | 0.00 | 0.00 | 0.00 | 84 | 1007.6 |
| 20260506200056 | 59 | 263 | 1.7 | 5.2 | 0.00 | 0.00 | 0.00 | 83 | 1007.6 |
| 20260506195537 | 59 | 221 | 0.9 | 7.8 | 0.00 | 0.03 | 0.00 | 82 | 1007.4 |
| 20260506195037 | 59 | 297 | 1.7 | 9.6 | 0.00 | 0.03 | 0.00 | 80 | 1007.1 |
| 20260506194554 | 60 | 0 | 1.7 | 10.4 | 0.00 | 0.03 | 0.00 | 78 | 1007.0 |
| 20260506194038 | 61 | 225 | 1.7 | 10.4 | 0.00 | 0.03 | 0.00 | 75 | 1006.9 |
| 20260506193543 | 61 | 212 | 2.6 | 7.8 | 0.00 | 0.03 | 0.00 | 73 | 1006.8 |
| 20260506193105 | 62 | 266 | 0.9 | 8.7 | 0.00 | 0.03 | 0.00 | 69 | 1006.7 |
| 20260506192540 | 62 | 281 | 1.7 | 8.7 | 0.00 | 0.03 | 0.00 | 67 | 1006.4 |
| 20260506192040 | 63 | 325 | 2.6 | 8.7 | 0.00 | 0.03 | 0.00 | 64 | 1006.3 |
| 20260506191552 | 63 | 210 | 1.7 | 5.2 | 0.00 | 0.03 | 0.00 | 62 | 1005.9 |
| 20260506191037 | 63 | 263 | 0.9 | 8.7 | 0.00 | 0.03 | 0.00 | 61 | 1005.4 |
| 20260506190538 | 63 | 245 | 1.7 | 13.0 | 0.00 | 0.03 | 0.00 | 60 | 1005.3 |
| 20260506190054 | 63 | 360 | 2.6 | 13.0 | 0.00 | 0.03 | 0.00 | 60 | 1004.7 |
| 20260506185537 | 63 | 322 | 2.6 | 12.2 | 0.00 | 0.12 | 0.00 | 61 | 1004.5 |
| 20260506185040 | 63 | 327 | 3.5 | 12.2 | 0.00 | 0.12 | 0.00 | 62 | 1004.6 |
| 20260506184557 | 64 | 330 | 3.5 | 12.2 | 0.00 | 0.12 | 0.00 | 63 | 1004.7 |
| 20260506184038 | 64 | 304 | 1.7 | 14.8 | 0.00 | 0.12 | 0.00 | 63 | 1004.6 |
| 20260506183544 | 64 | 242 | 2.6 | 14.8 | 0.00 | 0.12 | 0.00 | 63 | 1004.4 |
| 20260506183103 | 65 | 302 | 1.7 | 8.7 | 0.00 | 0.12 | 0.00 | 62 | 1004.3 |
| 20260506182541 | 66 | 352 | 2.6 | 10.4 | 0.00 | 0.12 | 0.00 | 61 | 1004.0 |
| 20260506182042 | 67 | 328 | 2.6 | 10.4 | 0.00 | 0.12 | 0.00 | 57 | 1003.8 |
| 20260506181555 | 68 | 250 | 2.6 | 12.2 | 0.00 | 0.12 | 0.00 | 53 | 1003.7 |
| 20260506181040 | 70 | 304 | 3.5 | 12.2 | 0.00 | 0.12 | 0.00 | 50 | 1003.5 |
| 20260506180543 | 72 | 350 | 3.5 | 12.2 | 0.00 | 0.12 | 0.00 | 45 | 1003.5 |
| 20260506180053 | 73 | 0 | 0.0 | 4.3 | 0.00 | 0.12 | 0.00 | 42 | 1002.8 |
| 20260506175540 | 73 | 0 | 0.9 | 4.3 | 0.00 | 0.12 | 0.00 | 41 | 1002.6 |
| 20260506175040 | 73 | 160 | 1.7 | 4.3 | 0.00 | 0.12 | 0.00 | 41 | 1002.5 |
| 20260506174552 | 73 | 192 | 0.0 | 4.3 | 0.00 | 0.12 | 0.00 | 42 | 1002.2 |
| 20260506174040 | 73 | 160 | 0.9 | 4.3 | 0.00 | 0.12 | 0.00 | 42 | 1002.1 |
| 20260506173540 | 73 | 101 | 0.9 | 4.3 | 0.00 | 0.12 | 0.00 | 41 | 1002.1 |
| 20260506173106 | 73 | 0 | 0.0 | 2.6 | 0.00 | 0.12 | 0.00 | 41 | 1002.0 |
| 20260506172538 | 73 | 0 | 0.0 | 2.6 | 0.00 | 0.12 | 0.00 | 41 | 1001.7 |
| 20260506172041 | 74 | 0 | 0.9 | 2.6 | 0.00 | 0.12 | 0.00 | 40 | 1001.4 |
| 20260506171551 | 74 | 182 | 0.0 | 3.5 | 0.00 | 0.12 | 0.00 | 40 | 1001.3 |
| 20260506171040 | 74 | 174 | 0.0 | 3.5 | 0.00 | 0.12 | 0.00 | 39 | 1001.2 |
| 20260506170540 | 75 | 42 | 0.9 | 4.3 | 0.00 | 0.12 | 0.00 | 40 | 1001.1 |
| 20260506170104 | 75 | 138 | 1.7 | 5.2 | 0.00 | 0.12 | 0.00 | 39 | 1001.0 |
| 20260506165543 | 75 | 0 | 0.9 | 5.2 | 0.00 | 0.12 | 0.00 | 39 | 1001.1 |
| 20260506165040 | 76 | 101 | 0.9 | 6.1 | 0.00 | 0.12 | 0.00 | 39 | 1001.2 |
| 20260506164603 | 76 | 205 | 2.6 | 6.1 | 0.00 | 0.12 | 0.00 | 38 | 1001.3 |
| 20260506164039 | 76 | 111 | 1.7 | 5.2 | 0.00 | 0.12 | 0.00 | 38 | 1001.4 |
| 20260506163540 | 76 | 5 | 0.9 | 5.2 | 0.00 | 0.12 | 0.00 | 38 | 1001.6 |
| 20260506163056 | 76 | 0 | 0.9 | 5.2 | 0.00 | 0.12 | 0.00 | 39 | 1001.6 |
| 20260506162543 | 76 | 165 | 0.0 | 5.2 | 0.00 | 0.12 | 0.00 | 40 | 1001.6 |
| 20260506162041 | 76 | 126 | 0.9 | 5.2 | 0.00 | 0.12 | 0.00 | 39 | 1001.7 |
| 20260506161554 | 76 | 151 | 0.0 | 3.5 | 0.00 | 0.12 | 0.00 | 40 | 1001.7 |
| 20260506161038 | 76 | 0 | 0.9 | 3.5 | 0.00 | 0.12 | 0.00 | 39 | 1001.8 |
| 20260506160537 | 76 | 180 | 0.0 | 6.1 | 0.00 | 0.12 | 0.00 | 40 | 1001.8 |
| 20260506160111 | 76 | 169 | 0.9 | 7.8 | 0.00 | 0.12 | 0.00 | 39 | 1001.9 |
| 20260506155540 | 76 | 119 | 1.7 | 7.8 | 0.00 | 0.12 | 0.00 | 39 | 1001.9 |
| 20260506155037 | 76 | 52 | 0.9 | 7.0 | 0.00 | 0.12 | 0.00 | 42 | 1002.1 |
| 20260506154556 | 76 | 326 | 0.9 | 7.0 | 0.00 | 0.12 | 0.00 | 43 | 1002.2 |
| 20260506154040 | 76 | 96 | 1.7 | 7.0 | 0.00 | 0.12 | 0.00 | 43 | 1002.2 |
| 20260506153544 | 76 | 70 | 1.7 | 4.3 | 0.00 | 0.12 | 0.00 | 43 | 1002.2 |
| 20260506153054 | 76 | 100 | 1.7 | 4.3 | 0.00 | 0.12 | 0.00 | 44 | 1002.3 |
| 20260506152540 | 76 | 212 | 0.9 | 4.3 | 0.00 | 0.12 | 0.00 | 44 | 1002.4 |
| 20260506152043 | 76 | 73 | 0.9 | 5.2 | 0.00 | 0.12 | 0.00 | 45 | 1002.4 |
| 20260506151556 | 75 | 0 | 0.9 | 6.1 | 0.00 | 0.12 | 0.00 | 46 | 1002.5 |
| 20260506151036 | 76 | 69 | 0.9 | 6.1 | 0.00 | 0.12 | 0.00 | 44 | 1002.5 |
| 20260506150539 | 76 | 315 | 0.0 | 3.5 | 0.00 | 0.12 | 0.00 | 46 | 1002.6 |
| 20260506145538 | 75 | 76 | 0.9 | 5.2 | 0.00 | 0.12 | 0.00 | 43 | 1002.6 |
| 20260506145040 | 76 | 73 | 0.9 | 4.3 | 0.00 | 0.12 | 0.00 | 43 | 1002.7 |
| 20260506144552 | 75 | 98 | 0.0 | 3.5 | 0.00 | 0.12 | 0.00 | 44 | 1002.8 |
| 20260506144037 | 75 | 0 | 0.9 | 3.5 | 0.00 | 0.12 | 0.00 | 43 | 1002.9 |
| 20260506143537 | 75 | 80 | 0.9 | 4.3 | 0.00 | 0.12 | 0.00 | 44 | 1002.9 |
| 20260506143053 | 75 | 85 | 0.9 | 4.3 | 0.00 | 0.12 | 0.00 | 42 | 1003.0 |
| 20260506142540 | 75 | 72 | 1.7 | 4.3 | 0.00 | 0.12 | 0.00 | 43 | 1003.0 |
| 20260506142039 | 75 | 86 | 1.7 | 4.3 | 0.00 | 0.12 | 0.00 | 43 | 1003.2 |
| 20260506141550 | 75 | 328 | 0.9 | 3.5 | 0.00 | 0.12 | 0.00 | 43 | 1003.1 |
| 20260506141040 | 75 | 27 | 0.0 | 3.5 | 0.00 | 0.12 | 0.00 | 43 | 1003.2 |
| 20260506140540 | 75 | 71 | 0.0 | 2.6 | 0.00 | 0.12 | 0.00 | 43 | 1003.2 |
| 20260506140055 | 75 | 71 | 0.0 | 6.1 | 0.00 | 0.12 | 0.00 | 42 | 1003.3 |
| 20260506135540 | 75 | 74 | 0.9 | 7.8 | 0.00 | 0.12 | 0.00 | 43 | 1003.5 |
| 20260506135039 | 76 | 42 | 3.5 | 9.6 | 0.00 | 0.12 | 0.00 | 40 | 1003.5 |
| 20260506134556 | 76 | 70 | 4.3 | 9.6 | 0.00 | 0.12 | 0.00 | 39 | 1003.5 |
| 20260506134042 | 77 | 68 | 1.7 | 6.1 | 0.00 | 0.12 | 0.00 | 40 | 1003.5 |
| 20260506133540 | 77 | 71 | 1.7 | 7.8 | 0.00 | 0.12 | 0.00 | 39 | 1003.5 |
| 20260506133107 | 77 | 200 | 0.9 | 8.7 | 0.00 | 0.12 | 0.00 | 41 | 1003.7 |
| 20260506132540 | 77 | 69 | 3.5 | 8.7 | 0.00 | 0.12 | 0.00 | 39 | 1003.8 |
| 20260506132043 | 77 | 89 | 2.6 | 7.0 | 0.00 | 0.12 | 0.00 | 39 | 1003.8 |
| 20260506131614 | 77 | 85 | 1.7 | 5.2 | 0.00 | 0.12 | 0.00 | 40 | 1003.9 |
| 20260506131042 | 77 | 0 | 1.7 | 5.2 | 0.00 | 0.12 | 0.00 | 42 | 1004.0 |
| 20260506130540 | 76 | 81 | 0.9 | 5.2 | 0.00 | 0.12 | 0.00 | 41 | 1004.0 |
| 20260506130054 | 76 | 84 | 0.9 | 4.3 | 0.00 | 0.12 | 0.00 | 41 | 1004.2 |
| 20260506125539 | 76 | 98 | 0.9 | 7.8 | 0.00 | 0.12 | 0.00 | 41 | 1004.2 |
| 20260506125039 | 76 | 74 | 1.7 | 7.8 | 0.00 | 0.12 | 0.00 | 42 | 1004.3 |
| 20260506124553 | 76 | 98 | 1.7 | 6.1 | 0.00 | 0.12 | 0.00 | 43 | 1004.3 |
| 20260506124039 | 75 | 138 | 1.7 | 6.1 | 0.00 | 0.12 | 0.00 | 43 | 1004.4 |
| 20260506123542 | 75 | 267 | 0.0 | 7.8 | 0.00 | 0.12 | 0.00 | 46 | 1004.4 |
| 20260506123054 | 75 | 88 | 1.7 | 7.8 | 0.00 | 0.12 | 0.00 | 44 | 1004.6 |
| 20260506122540 | 75 | 63 | 1.7 | 7.8 | 0.00 | 0.12 | 0.00 | 44 | 1004.6 |
| 20260506122041 | 75 | 98 | 1.7 | 7.8 | 0.00 | 0.12 | 0.00 | 44 | 1004.8 |
| 20260506121557 | 75 | 74 | 2.6 | 7.0 | 0.00 | 0.12 | 0.00 | 44 | 1004.8 |
| 20260506121040 | 75 | 77 | 1.7 | 7.0 | 0.00 | 0.12 | 0.00 | 43 | 1005.0 |
| 20260506120540 | 76 | 173 | 0.9 | 6.1 | 0.00 | 0.12 | 0.00 | 45 | 1005.0 |
| 20260506115539 | 74 | 348 | 0.9 | 7.8 | 0.00 | 0.12 | 0.00 | 51 | 1005.1 |
| 20260506115040 | 73 | 73 | 1.7 | 7.8 | 0.00 | 0.12 | 0.00 | 48 | 1005.2 |
| 20260506114554 | 73 | 80 | 1.7 | 7.0 | 0.00 | 0.12 | 0.00 | 48 | 1005.3 |
| 20260506114038 | 73 | 65 | 1.7 | 7.0 | 0.00 | 0.12 | 0.00 | 47 | 1005.3 |
| 20260506113540 | 74 | 80 | 2.6 | 5.2 | 0.00 | 0.12 | 0.00 | 47 | 1005.4 |
| 20260506113054 | 74 | 154 | 0.9 | 6.1 | 0.00 | 0.12 | 0.00 | 51 | 1005.5 |
| 20260506112540 | 74 | 68 | 1.7 | 6.1 | 0.00 | 0.12 | 0.00 | 47 | 1005.5 |
| 20260506112040 | 74 | 90 | 0.0 | 2.6 | 0.00 | 0.12 | 0.00 | 52 | 1005.6 |
| 20260506111548 | 73 | 341 | 0.9 | 3.5 | 0.00 | 0.12 | 0.00 | 55 | 1005.6 |
| 20260506111040 | 73 | 285 | 0.0 | 4.3 | 0.00 | 0.12 | 0.00 | 53 | 1005.7 |
| 20260506110540 | 73 | 55 | 0.9 | 4.3 | 0.00 | 0.12 | 0.00 | 53 | 1005.8 |
| 20260506110101 | 72 | 330 | 0.9 | 4.3 | 0.00 | 0.12 | 0.00 | 58 | 1005.8 |
| 20260506105540 | 71 | 236 | 0.0 | 4.3 | 0.00 | 0.12 | 0.00 | 56 | 1005.9 |
| 20260506105042 | 71 | 0 | 0.0 | 5.2 | 0.00 | 0.12 | 0.00 | 60 | 1005.9 |
| 20260506104603 | 70 | 300 | 1.7 | 5.2 | 0.00 | 0.12 | 0.00 | 59 | 1006.1 |
| 20260506104040 | 70 | 218 | 1.7 | 5.2 | 0.00 | 0.12 | 0.00 | 62 | 1006.2 |
| 20260506103540 | 69 | 351 | 0.0 | 4.3 | 0.00 | 0.12 | 0.00 | 63 | 1006.3 |
| 20260506103050 | 69 | 81 | 0.0 | 3.5 | 0.00 | 0.12 | 0.00 | 61 | 1006.4 |
| 20260506102542 | 69 | 115 | 0.0 | 3.5 | 0.00 | 0.12 | 0.00 | 61 | 1006.5 |
| 20260506102042 | 69 | 0 | 0.9 | 3.5 | 0.00 | 0.12 | 0.00 | 63 | 1006.6 |
| 20260506101549 | 68 | 0 | 0.0 | 2.6 | 0.00 | 0.12 | 0.00 | 62 | 1006.8 |
| 20260506101044 | 68 | 329 | 0.9 | 4.3 | 0.00 | 0.12 | 0.00 | 64 | 1006.8 |
| 20260506100540 | 68 | 336 | 0.9 | 5.2 | 0.00 | 0.12 | 0.00 | 63 | 1006.9 |
| 20260506100058 | 68 | 325 | 1.7 | 5.2 | 0.00 | 0.12 | 0.00 | 64 | 1006.9 |
| 20260506095539 | 68 | 290 | 0.9 | 4.3 | 0.00 | 0.12 | 0.00 | 66 | 1006.9 |
| 20260506095036 | 68 | 330 | 1.7 | 4.3 | 0.00 | 0.12 | 0.00 | 66 | 1007.0 |
| 20260506094550 | 67 | 338 | 0.0 | 2.6 | 0.00 | 0.12 | 0.00 | 65 | 1007.1 |
| 20260506094040 | 67 | 0 | 0.0 | 2.6 | 0.00 | 0.12 | 0.00 | 64 | 1007.1 |
| 20260506093540 | 67 | 321 | 0.9 | 2.6 | 0.00 | 0.12 | 0.00 | 67 | 1007.1 |
| 20260506093051 | 67 | 318 | 0.0 | 4.3 | 0.00 | 0.12 | 0.00 | 66 | 1007.2 |
| 20260506092540 | 67 | 0 | 1.7 | 7.0 | 0.00 | 0.12 | 0.00 | 67 | 1007.2 |
| 20260506092040 | 67 | 0 | 0.9 | 7.0 | 0.00 | 0.12 | 0.00 | 67 | 1007.2 |
| 20260506091549 | 67 | 297 | 0.0 | 2.6 | 0.00 | 0.12 | 0.00 | 68 | 1007.3 |
| 20260506091040 | 67 | 0 | 0.0 | 2.6 | 0.00 | 0.12 | 0.00 | 69 | 1007.3 |
| 20260506090540 | 67 | 348 | 0.0 | 2.6 | 0.00 | 0.12 | 0.00 | 69 | 1007.4 |
| 20260506090048 | 67 | 0 | 0.0 | 3.5 | 0.00 | 0.12 | 0.00 | 67 | 1007.4 |
| 20260506085539 | 66 | 293 | 0.9 | 3.5 | 0.00 | 0.12 | 0.00 | 69 | 1007.5 |
| 20260506085039 | 66 | 0 | 0.0 | 3.5 | 0.00 | 0.12 | 0.00 | 68 | 1007.5 |
| 20260506084615 | 66 | 314 | 0.0 | 2.6 | 0.00 | 0.12 | 0.00 | 70 | 1007.6 |
| 20260506084039 | 66 | 65 | 0.0 | 2.6 | 0.00 | 0.12 | 0.00 | 70 | 1007.6 |
| 20260506083538 | 66 | 305 | 0.9 | 2.6 | 0.00 | 0.12 | 0.00 | 71 | 1007.7 |
| 20260506083049 | 65 | 209 | 0.0 | 3.5 | 0.00 | 0.12 | 0.00 | 71 | 1007.6 |
| 20260506082541 | 65 | 0 | 0.0 | 3.5 | 0.00 | 0.12 | 0.00 | 70 | 1007.7 |
| 20260506082039 | 65 | 42 | 0.9 | 3.5 | 0.00 | 0.12 | 0.00 | 71 | 1007.6 |
| 20260506081554 | 65 | 82 | 1.7 | 3.5 | 0.00 | 0.12 | 0.00 | 70 | 1007.7 |
| 20260506081040 | 65 | 0 | 0.9 | 3.5 | 0.00 | 0.12 | 0.00 | 70 | 1007.7 |
| 20260506080540 | 64 | 5 | 0.9 | 3.5 | 0.00 | 0.12 | 0.00 | 69 | 1007.6 |
| 20260506073047 | 62 | 32 | 0.9 | 5.2 | 0.00 | 0.12 | 0.00 | 80 | 1007.7 |
| 20260506072539 | 61 | 50 | 1.7 | 5.2 | 0.00 | 0.12 | 0.00 | 79 | 1007.9 |
| 20260506072039 | 61 | 71 | 1.7 | 4.3 | 0.00 | 0.12 | 0.00 | 81 | 1007.9 |
| 20260506071551 | 61 | 63 | 0.9 | 4.3 | 0.00 | 0.12 | 0.00 | 80 | 1007.9 |
| 20260506071039 | 61 | 77 | 0.9 | 3.5 | 0.00 | 0.12 | 0.00 | 79 | 1007.9 |
| 20260506070540 | 61 | 74 | 0.0 | 1.7 | 0.00 | 0.12 | 0.00 | 82 | 1007.9 |
| 20260506062039 | 60 | 333 | 0.0 | 2.6 | 0.00 | 0.12 | 0.00 | 82 | 1008.3 |
| 20260506061554 | 60 | 5 | 0.0 | 3.5 | 0.00 | 0.12 | 0.00 | 84 | 1008.2 |
| 20260506061039 | 59 | 74 | 1.7 | 3.5 | 0.00 | 0.12 | 0.00 | 84 | 1008.3 |